period_start,C,m1,H,J0,J1,J2,J3,J4,J5,JA,JB,JC,JD,JJ,JK,JN,#
2013-08-28 00:00:46,0.02,0.26,0.00,23.64,28.22,30.58,5.95,29.33,1011.86,2048.11,3398.00,3275.98,3550.90,350.00,321.52,15.02,0000 0000 0000 0000 000000
2013-08-28 00:01:46,0.00,0.26,0.00,23.64,28.22,30.59,5.91,29.79,1011.79,2048.07,3398.00,3275.98,3550.83,350.29,321.56,15.03,0000 0000 0000 0000 000000
2013-08-28 00:02:46,-0.02,0.26,0.00,23.61,28.22,30.58,5.95,29.29,1011.78,2048.13,3398.00,3275.97,3550.80,349.69,321.67,15.03,0000 0000 0000 0000 000000
2013-08-28 00:03:46,0.05,0.26,0.00,23.59,28.22,30.57,6.00,29.21,1011.77,2048.12,3398.00,3275.95,3550.71,349.78,321.80,15.04,0000 0000 0000 0000 000000
2013-08-28 00:04:47,0.01,0.26,0.00,23.56,28.22,30.60,5.94,29.38,1011.75,2048.08,3398.00,3275.93,3550.52,349.50,321.49,15.05,0000 0000 0000 0000 000000
2013-08-28 00:05:47,0.01,0.26,0.00,23.54,28.23,30.63,5.85,29.21,1011.76,2048.05,3397.99,3275.93,3550.41,349.28,321.44,15.05,0000 0000 0000 0000 000000
2013-08-28 00:06:47,-0.02,0.26,0.00,23.52,28.23,30.63,6.03,29.21,1011.75,2048.05,3397.98,3275.86,3550.28,350.01,321.86,15.06,0000 0000 0000 0000 000000
2013-08-28 00:07:47,0.04,0.26,0.00,23.51,28.24,30.63,5.98,29.29,1011.76,2048.04,3397.97,3275.85,3550.23,349.83,321.71,15.06,0000 0000 0000 0000 000000
2013-08-28 00:08:48,-0.01,0.26,0.00,23.50,28.24,30.63,5.93,29.38,1011.75,2048.04,3397.91,3275.68,3550.12,350.05,321.92,15.07,0000 0000 0000 0000 000000
2013-08-28 00:09:48,0.10,0.26,0.00,23.49,28.25,30.64,5.96,29.21,1011.75,2048.05,3397.80,3275.49,3550.07,349.07,321.03,15.07,0000 0000 0000 0000 000000
2013-08-28 00:10:48,0.04,0.26,0.00,23.48,28.25,30.66,6.01,29.25,1011.74,2048.04,3397.80,3275.36,3550.05,349.87,321.78,15.08,0000 0000 0000 0000 000000
2013-08-28 00:11:49,0.01,0.26,0.00,23.47,28.25,30.65,5.95,29.46,1011.74,2048.03,3397.74,3275.21,3550.03,350.13,322.05,15.09,0000 0000 0000 0000 000000
2013-08-28 00:12:49,0.05,0.26,0.00,23.45,28.25,30.67,5.90,29.50,1011.74,2048.04,3397.57,3275.17,3550.01,349.48,321.72,15.09,0000 0000 0000 0000 000000
2013-08-28 00:13:49,0.03,0.26,0.00,23.43,28.25,30.67,6.01,29.38,1011.75,2048.04,3397.55,3275.16,3550.01,349.25,321.52,15.10,0000 0000 0000 0000 000000
2013-08-28 00:14:49,-0.01,0.26,0.00,23.40,28.25,30.69,5.89,29.25,1011.75,2048.03,3397.34,3275.14,3550.01,350.97,322.76,15.10,0000 0000 0000 0000 000000
2013-08-28 00:15:49,0.03,0.26,0.00,23.40,28.25,30.70,5.98,29.33,1011.75,2048.04,3397.19,3275.11,3550.02,349.80,321.71,15.11,0000 0000 0000 0000 000000
2013-08-28 00:16:50,0.05,0.26,0.00,23.38,28.25,30.73,5.98,29.50,1011.74,2048.03,3397.11,3275.11,3550.00,349.36,321.36,15.12,0000 0000 0000 0000 000000
2013-08-28 00:17:50,0.00,0.26,0.00,23.37,28.25,30.78,6.09,29.38,1011.74,2048.01,3397.09,3275.11,3550.00,350.99,322.92,15.12,0000 0000 0000 0000 000000
2013-08-28 00:18:50,-0.02,0.26,0.00,23.35,28.25,30.79,5.94,29.29,1011.73,2048.00,3397.04,3275.07,3550.00,349.78,322.14,15.13,0000 0000 0000 0000 000000
2013-08-28 00:19:50,0.02,0.26,0.00,23.36,28.25,30.78,5.81,29.54,1011.74,2048.03,3397.01,3275.06,3550.00,347.95,320.50,15.13,0000 0000 0000 0000 000000
2013-08-28 00:20:50,0.02,0.26,0.00,23.36,28.25,30.84,6.00,29.50,1011.73,2048.01,3397.00,3275.03,3550.00,350.32,322.17,15.14,0000 0000 0000 0000 000000
2013-08-28 00:21:51,0.00,0.26,0.00,23.34,28.25,30.86,6.02,29.38,1011.73,2048.02,3397.01,3275.02,3550.00,350.61,322.46,15.14,0000 0000 0000 0000 000000
2013-08-28 00:22:51,0.00,0.26,0.00,23.34,28.25,30.83,5.93,29.54,1011.73,2048.02,3397.00,3275.01,3550.00,349.53,321.57,15.15,0000 0000 0000 0000 000000
2013-08-28 00:23:51,0.01,0.26,0.00,23.34,28.25,30.85,5.97,29.13,1011.73,2048.03,3397.00,3275.01,3550.00,351.17,322.99,15.16,0000 0000 0000 0000 000000
2013-08-28 00:24:51,0.00,0.26,0.00,23.36,28.25,30.91,5.99,29.50,1011.73,2048.02,3397.00,3275.02,3549.99,349.67,322.12,15.16,0000 0000 0000 0000 000000
2013-08-28 00:25:51,-0.01,0.26,0.00,23.37,28.25,30.90,5.98,29.63,1011.73,2048.02,3397.00,3275.02,3549.99,348.98,321.07,15.17,0000 0000 0000 0000 000000
2013-08-28 00:26:51,0.00,0.26,0.00,23.37,28.25,30.86,6.00,29.54,1011.74,2048.01,3397.00,3275.00,3549.99,350.29,322.08,15.17,0000 0000 0000 0000 000000
2013-08-28 00:27:52,0.00,0.26,0.00,23.39,28.25,30.88,6.02,29.38,1011.74,2048.02,3397.00,3275.00,3549.99,349.91,322.00,15.18,0000 0000 0000 0000 000000
2013-08-28 00:28:52,0.00,0.26,0.00,23.41,28.25,30.86,6.00,29.21,1011.73,2048.01,3397.00,3275.00,3549.99,349.81,322.11,15.19,0000 0000 0000 0000 000000
2013-08-28 00:29:52,0.00,0.26,0.00,23.42,28.25,30.84,5.88,29.38,1011.73,2048.02,3397.00,3275.00,3549.99,349.85,321.91,15.19,0000 0000 0000 0000 000000
2013-08-28 00:30:52,0.00,0.26,0.00,23.43,28.25,30.80,5.83,29.13,1011.73,2048.03,3397.00,3275.00,3549.98,350.30,322.22,15.20,0000 0000 0000 0000 000000
2013-08-28 00:31:52,0.01,0.26,0.00,23.44,28.25,30.79,5.98,29.38,1011.73,2048.02,3397.00,3275.00,3549.99,350.02,322.18,15.20,0000 0000 0000 0000 000000
2013-08-28 00:32:52,-0.02,0.26,0.00,23.45,28.25,30.81,6.01,29.25,1011.74,2048.03,3397.00,3275.00,3549.99,349.78,321.72,15.21,0000 0000 0000 0000 000000
2013-08-28 00:33:52,0.00,0.26,0.00,23.45,28.25,30.81,5.98,29.25,1011.74,2048.03,3396.99,3275.00,3549.98,350.30,322.19,15.22,0000 0000 0000 0000 000000
2013-08-28 00:34:53,0.01,0.26,0.00,23.46,28.25,30.84,5.89,29.42,1011.74,2048.02,3396.99,3275.00,3549.97,349.18,321.15,15.22,0000 0000 0000 0000 000000
2013-08-28 00:35:53,-0.01,0.26,0.00,23.48,28.25,30.79,5.98,29.33,1011.73,2048.02,3396.98,3275.00,3549.96,349.28,321.61,15.23,0000 0000 0000 0000 000000
2013-08-28 00:36:53,0.00,0.26,0.00,23.51,28.25,30.77,6.03,29.46,1011.74,2048.02,3396.98,3275.00,3549.96,348.93,320.87,15.23,0000 0000 0000 0000 000000
2013-08-28 00:37:54,0.00,0.26,0.00,23.52,28.25,30.78,5.93,29.38,1011.73,2048.04,3396.97,3275.00,3549.94,349.49,321.38,15.24,0000 0000 0000 0000 000000
2013-08-28 00:38:54,0.04,0.26,0.00,23.52,28.25,30.74,5.92,29.42,1011.73,2048.02,3396.92,3275.00,3549.91,349.31,320.69,15.24,0000 0000 0000 0000 000000
2013-08-28 00:39:54,-0.01,0.26,0.00,23.52,28.25,30.72,5.94,29.75,1011.74,2048.02,3396.85,3275.00,3549.89,348.91,320.87,15.25,0000 0000 0000 0000 000000
2013-08-28 00:40:54,0.02,0.26,0.00,23.52,28.25,30.71,5.99,29.58,1011.74,2048.01,3396.71,3275.00,3549.80,350.34,322.42,15.26,0000 0000 0000 0000 000000
2013-08-28 00:41:54,0.01,0.26,0.00,23.53,28.25,30.72,5.94,29.50,1011.74,2048.01,3396.72,3275.00,3549.80,349.91,322.23,15.26,0000 0000 0000 0000 000000
2013-08-28 00:42:55,-0.01,0.26,0.00,23.54,28.25,30.70,6.15,29.92,1011.74,2048.00,3396.61,3275.00,3549.73,350.86,322.78,15.27,0000 0000 0000 0000 000000
2013-08-28 00:43:55,0.02,0.26,0.00,23.54,28.25,30.70,6.02,29.50,1011.74,2048.00,3396.68,3275.00,3549.80,350.07,321.89,15.27,0000 0000 0000 0000 000000
2013-08-28 00:44:55,-0.02,0.26,0.00,23.54,28.25,30.69,5.93,29.54,1011.74,2048.04,3396.80,3275.00,3549.90,348.90,321.07,15.28,0000 0000 0000 0000 000000
2013-08-28 00:45:55,0.00,0.26,0.00,23.56,28.25,30.67,5.92,29.54,1011.74,2048.04,3396.83,3275.00,3549.93,349.19,321.06,15.29,0000 0000 0000 0000 000000
2013-08-28 00:46:55,-0.02,0.26,0.00,23.57,28.25,30.67,5.91,29.38,1011.73,2048.03,3396.75,3275.00,3549.93,349.55,321.38,15.29,0000 0000 0000 0000 000000
2013-08-28 00:47:55,0.00,0.26,0.00,23.57,28.25,30.69,5.95,29.50,1011.73,2048.01,3396.50,3275.00,3549.83,348.73,320.62,15.30,0000 0000 0000 0000 000000
2013-08-28 00:48:56,0.04,0.26,0.00,23.59,28.25,30.66,5.88,29.38,1011.73,2048.01,3396.52,3275.00,3549.78,349.16,321.05,15.30,0000 0000 0000 0000 000000
2013-08-28 00:49:56,-0.01,0.26,0.00,23.59,28.25,30.67,6.02,29.46,1011.73,2048.02,3396.54,3275.00,3549.80,350.26,322.01,15.31,0000 0000 0000 0000 000000
2013-08-28 00:50:56,0.01,0.26,0.00,23.59,28.25,30.66,5.81,29.13,1011.73,2048.03,3396.38,3275.00,3549.67,349.35,321.40,15.31,0000 0000 0000 0000 000000
2013-08-28 00:51:56,0.03,0.26,0.00,23.58,28.25,30.66,5.96,29.21,1011.73,2048.01,3396.18,3275.00,3549.54,349.89,322.01,15.32,0000 0000 0000 0000 000000
2013-08-28 00:52:56,0.02,0.26,0.00,23.60,28.25,30.64,6.03,29.42,1011.73,2048.00,3396.12,3275.00,3549.45,350.46,322.18,15.33,0000 0000 0000 0000 000000
2013-08-28 00:53:57,0.01,0.26,0.00,23.61,28.25,30.63,5.92,29.54,1011.73,2048.05,3396.09,3275.00,3549.47,349.62,321.39,15.33,0000 0000 0000 0000 000000
2013-08-28 00:54:57,0.03,0.26,0.00,23.62,28.25,30.63,5.92,29.42,1011.73,2048.05,3396.20,3275.00,3549.44,349.82,321.23,15.34,0000 0000 0000 0000 000000
2013-08-28 00:55:57,-0.01,0.26,0.00,23.62,28.25,30.62,6.11,29.33,1011.73,2048.04,3396.18,3275.00,3549.37,350.52,322.34,15.34,0000 0000 0000 0000 000000
2013-08-28 00:56:57,0.00,0.26,0.00,23.62,28.25,30.61,5.87,29.46,1011.73,2048.04,3396.07,3275.00,3549.21,348.96,320.78,15.35,0000 0000 0000 0000 000000
2013-08-28 00:57:58,0.04,0.26,0.00,23.63,28.25,30.59,6.02,29.54,1011.73,2048.04,3396.03,3274.98,3549.10,350.34,322.04,15.36,0000 0000 0000 0000 000000
2013-08-28 00:58:58,0.01,0.26,0.00,23.64,28.25,30.58,5.93,29.38,1011.73,2048.02,3396.01,3274.99,3549.05,350.41,322.15,15.36,0000 0000 0000 0000 000000
2013-08-28 00:59:58,-0.01,0.26,0.00,23.64,28.25,30.62,5.87,29.38,1011.73,2048.03,3396.00,3274.97,3549.03,349.08,320.87,15.37,0000 0000 0000 0000 000000
2013-08-28 01:00:58,0.02,0.26,0.00,23.64,28.25,30.61,6.01,29.54,1011.73,2048.02,3396.00,3274.96,3549.03,350.71,322.37,15.37,0000 0000 0000 0000 000000
2013-08-28 01:01:59,-0.01,0.26,0.00,23.65,28.25,30.57,6.04,29.29,1011.73,2048.02,3396.00,3274.90,3549.02,350.52,322.36,15.38,0000 0000 0000 0000 000000
2013-08-28 01:02:59,0.00,0.26,0.00,23.65,28.25,30.56,5.73,29.38,1011.74,2048.01,3396.00,3274.89,3549.00,348.93,320.54,15.38,0000 0000 0000 0000 000000
2013-08-28 01:03:59,0.01,0.26,0.00,23.65,28.25,30.54,5.79,29.50,1011.74,2048.01,3396.00,3274.92,3549.02,348.75,320.56,15.39,0000 0000 0000 0000 000000
2013-08-28 01:04:59,-0.02,0.26,0.00,23.66,28.25,30.57,5.83,29.25,1011.73,2048.03,3396.00,3274.90,3549.01,349.80,321.21,15.40,0000 0000 0000 0000 000000
2013-08-28 01:06:00,0.01,0.26,0.00,23.67,28.25,30.56,5.98,29.33,1011.73,2048.01,3396.00,3274.77,3549.00,349.98,321.69,15.40,0000 0000 0000 0000 000000
2013-08-28 01:07:00,0.02,0.26,0.00,23.67,28.25,30.56,5.92,29.42,1011.73,2048.01,3395.99,3274.58,3549.00,349.55,321.27,15.41,0000 0000 0000 0000 000000
2013-08-28 01:08:00,0.04,0.26,0.00,23.67,28.25,30.56,5.84,29.29,1011.73,2048.00,3395.97,3274.42,3549.00,349.29,320.80,15.41,0000 0000 0000 0000 000000
2013-08-28 01:09:01,0.02,0.26,0.00,23.67,28.25,30.54,6.02,29.38,1011.73,2048.01,3395.99,3274.47,3549.00,350.40,322.15,15.42,0000 0000 0000 0000 000000
2013-08-28 01:10:01,-0.01,0.26,0.00,23.68,28.25,30.56,6.01,29.75,1011.73,2048.02,3395.99,3274.53,3549.00,350.82,322.43,15.43,0000 0000 0000 0000 000000
2013-08-28 01:11:01,-0.00,0.26,0.00,23.69,28.26,30.57,5.85,29.58,1011.73,2048.01,3395.99,3274.61,3549.00,349.09,320.83,15.43,0000 0000 0000 0000 000000
2013-08-28 01:12:01,-0.01,0.26,0.00,23.69,28.27,30.57,5.98,29.58,1011.73,2048.01,3395.99,3274.71,3549.00,350.86,322.45,15.44,0000 0000 0000 0000 000000
2013-08-28 01:13:01,-0.02,0.26,0.00,23.69,28.27,30.57,5.80,29.54,1011.73,2048.03,3395.98,3274.75,3549.00,349.09,320.83,15.44,0000 0000 0000 0000 000000
2013-08-28 01:14:01,0.00,0.26,0.00,23.69,28.27,30.55,5.99,29.50,1011.73,2048.05,3395.99,3274.76,3549.00,349.40,321.25,15.45,0000 0000 0000 0000 000000
2013-08-28 01:15:02,0.01,0.26,0.00,23.71,28.27,30.56,6.06,29.42,1011.73,2048.03,3395.96,3274.61,3549.00,350.05,321.87,15.45,0000 0000 0000 0000 000000
2013-08-28 01:16:02,0.02,0.26,0.00,23.71,28.27,30.56,6.01,29.42,1011.73,2048.02,3395.82,3274.37,3549.00,350.71,322.13,15.46,0000 0000 0000 0000 000000
2013-08-28 01:17:02,0.06,0.26,0.00,23.72,28.27,30.57,5.90,29.50,1011.73,2048.02,3395.72,3274.18,3549.00,348.80,320.52,15.47,0000 0000 0000 0000 000000
2013-08-28 01:18:02,0.05,0.26,0.00,23.71,28.27,30.57,6.04,29.46,1011.73,2048.01,3395.65,3274.08,3549.00,349.74,321.78,15.47,0000 0000 0000 0000 000000
2013-08-28 01:19:02,0.02,0.26,0.00,23.71,28.27,30.57,5.92,29.42,1011.73,2048.01,3395.76,3274.11,3548.99,349.57,321.24,15.48,0000 0000 0000 0000 000000
2013-08-28 01:20:02,-0.00,0.26,0.00,23.71,28.27,30.57,5.99,29.50,1011.73,2048.01,3395.78,3274.14,3548.99,350.82,322.40,15.48,0000 0000 0000 0000 000000
2013-08-28 01:21:03,-0.01,0.26,0.00,23.70,28.27,30.58,5.79,29.25,1011.73,2048.02,3395.85,3274.20,3548.99,349.56,321.24,15.49,0000 0000 0000 0000 000000
2013-08-28 01:22:03,-0.01,0.26,0.00,23.71,28.27,30.55,5.91,29.25,1011.73,2048.02,3395.78,3274.16,3548.98,350.35,321.80,15.50,0000 0000 0000 0000 000000
2013-08-28 01:23:03,0.01,0.26,0.00,23.72,28.27,30.57,5.82,29.29,1011.73,2048.01,3395.63,3274.10,3548.96,349.51,321.17,15.50,0000 0000 0000 0000 000000
2013-08-28 01:24:03,0.03,0.26,0.00,23.72,28.27,30.58,6.07,29.25,1011.73,2048.00,3395.43,3274.07,3548.98,350.86,322.42,15.51,0000 0000 0000 0000 000000
2013-08-28 01:25:03,0.01,0.26,0.00,23.73,28.27,30.60,5.88,29.50,1011.73,2048.02,3395.26,3274.07,3548.96,349.40,321.07,15.51,0000 0000 0000 0000 000000
2013-08-28 01:26:04,0.04,0.26,0.00,23.73,28.28,30.59,5.89,29.54,1011.73,2048.02,3395.13,3274.04,3548.91,349.31,320.53,15.52,0000 0000 0000 0000 000000
2013-08-28 01:27:04,0.02,0.26,0.00,23.76,28.28,30.56,5.95,29.63,1011.73,2048.01,3395.08,3274.02,3548.88,350.90,322.47,15.52,0000 0000 0000 0000 000000
2013-08-28 01:28:04,0.00,0.26,0.00,23.75,28.29,30.54,5.88,29.75,1011.73,2048.00,3395.05,3274.00,3548.85,349.05,320.87,15.53,0000 0000 0000 0000 000000
2013-08-28 01:29:04,0.01,0.26,0.00,23.76,28.30,30.55,6.06,29.50,1011.73,2048.01,3395.02,3274.01,3548.87,350.44,321.69,15.54,0000 0000 0000 0000 000000
2013-08-28 01:30:04,0.00,0.26,0.00,23.76,28.30,30.54,5.97,29.50,1011.73,2048.01,3395.02,3274.00,3548.89,350.73,322.17,15.54,0000 0000 0000 0000 000000
2013-08-28 01:31:05,0.00,0.26,0.00,23.75,28.30,30.54,5.93,29.46,1011.73,2048.00,3395.01,3274.01,3548.88,349.06,320.80,15.55,0000 0000 0000 0000 000000
2013-08-28 01:32:05,0.00,0.26,0.00,23.74,28.30,30.59,5.91,29.42,1011.73,2048.00,3395.04,3274.00,3548.84,350.38,322.16,15.55,0000 0000 0000 0000 000000
2013-08-28 01:33:05,0.00,0.26,0.00,23.76,28.30,30.61,6.02,29.50,1011.73,2048.00,3395.05,3274.01,3548.81,350.58,322.13,15.56,0000 0000 0000 0000 000000
2013-08-28 01:34:05,0.00,0.26,0.00,23.76,28.30,30.58,6.01,29.42,1011.73,2048.03,3395.04,3274.01,3548.84,350.13,321.70,15.57,0000 0000 0000 0000 000000
2013-08-28 01:35:06,0.01,0.26,0.00,23.77,28.30,30.57,5.88,29.25,1011.72,2048.04,3395.02,3274.00,3548.64,350.23,321.94,15.57,0000 0000 0000 0000 000000
2013-08-28 01:36:06,0.04,0.26,0.00,23.76,28.30,30.58,5.93,29.29,1011.73,2048.02,3395.00,3274.00,3548.28,350.01,321.08,15.58,0000 0000 0000 0000 000000
2013-08-28 01:37:06,0.02,0.26,0.00,23.77,28.30,30.56,5.89,29.54,1011.72,2048.01,3395.00,3274.00,3548.20,349.66,321.36,15.58,0000 0000 0000 0000 000000
2013-08-28 01:38:07,0.00,0.26,0.00,23.77,28.30,30.56,5.98,29.42,1011.72,2048.00,3395.00,3274.00,3548.17,350.57,321.95,15.59,0000 0000 0000 0000 000000
2013-08-28 01:39:07,0.00,0.26,0.00,23.77,28.30,30.57,5.91,29.71,1011.70,2048.00,3395.00,3274.00,3548.18,348.80,320.46,15.60,0000 0000 0000 0000 000000
2013-08-28 01:40:07,0.00,0.26,0.00,23.77,28.30,30.56,5.84,29.63,1011.70,2048.00,3395.00,3274.00,3548.09,349.96,321.03,15.60,0000 0000 0000 0000 000000
2013-08-28 01:41:07,0.01,0.26,0.00,23.78,28.31,30.56,5.84,30.04,1011.67,2048.00,3395.00,3274.00,3548.07,349.99,321.54,15.61,0000 0000 0000 0000 000000
2013-08-28 01:42:08,0.00,0.26,0.00,23.79,28.32,30.56,5.83,29.63,1011.64,2048.00,3394.99,3274.00,3548.02,350.68,322.14,15.61,0000 0000 0000 0000 000000
2013-08-28 01:43:08,0.00,0.26,0.00,23.80,28.32,30.55,6.07,29.71,1011.62,2048.00,3394.99,3274.00,3548.00,350.49,321.95,15.62,0000 0000 0000 0000 000000
2013-08-28 01:44:08,0.00,0.26,0.00,23.81,28.32,30.52,5.90,29.54,1011.61,2048.00,3394.98,3273.98,3548.00,350.47,321.93,15.62,0000 0000 0000 0000 000000
2013-08-28 01:45:08,0.00,0.26,0.00,23.80,28.32,30.52,5.77,29.29,1011.59,2048.00,3394.98,3273.96,3548.00,349.95,321.45,15.63,0000 0000 0000 0000 000000
2013-08-28 01:46:09,0.00,0.26,0.00,23.80,28.32,30.55,5.76,29.33,1011.60,2048.00,3394.97,3273.97,3548.00,348.50,320.53,15.64,0000 0000 0000 0000 000000
2013-08-28 01:47:09,0.00,0.26,0.00,23.80,28.32,30.59,6.00,29.75,1011.63,2048.00,3394.94,3273.94,3548.00,349.59,321.48,15.64,0000 0000 0000 0000 000000
2013-08-28 01:48:09,0.01,0.26,0.00,23.80,28.32,30.58,6.13,29.67,1011.66,2047.99,3394.78,3273.92,3548.00,350.37,321.86,15.65,0000 0000 0000 0000 000000
2013-08-28 01:49:10,0.01,0.26,0.00,23.80,28.32,30.59,5.93,29.46,1011.67,2047.98,3394.63,3273.88,3548.00,350.46,321.94,15.65,0000 0000 0000 0000 000000
2013-08-28 01:50:10,0.03,0.26,0.00,23.80,28.32,30.59,6.08,29.71,1011.71,2047.98,3394.63,3273.82,3548.00,349.79,321.34,15.66,0000 0000 0000 0000 000000
2013-08-28 01:51:10,0.01,0.26,0.00,23.80,28.33,30.59,5.95,29.50,1011.68,2047.98,3394.57,3273.82,3547.99,349.92,321.32,15.67,0000 0000 0000 0000 000000
2013-08-28 01:52:10,0.02,0.26,0.00,23.80,28.33,30.62,6.03,29.63,1011.72,2047.99,3394.31,3273.68,3547.97,350.46,321.97,15.67,0000 0000 0000 0000 000000
2013-08-28 01:53:10,0.06,0.27,0.00,23.81,28.34,30.63,5.94,29.71,1011.72,2047.99,3394.17,3273.54,3547.97,349.87,321.34,15.68,0000 0000 0000 0000 000000
2013-08-28 01:54:11,0.05,0.27,0.00,23.81,28.35,30.59,6.09,29.46,1011.71,2047.98,3394.09,3273.31,3547.97,350.97,322.58,15.68,0000 0000 0000 0000 000000
2013-08-28 01:55:11,0.04,0.27,0.00,23.81,28.35,30.61,5.90,29.42,1011.68,2047.97,3394.04,3273.21,3547.94,349.27,321.00,15.69,0000 0000 0000 0000 000000
2013-08-28 01:56:11,0.01,0.27,0.00,23.80,28.35,30.61,5.94,29.42,1011.68,2047.98,3394.03,3273.25,3547.94,349.27,320.97,15.69,0000 0000 0000 0000 000000
2013-08-28 01:57:11,-0.00,0.27,0.00,23.80,28.35,30.63,5.88,29.63,1011.63,2047.97,3394.03,3273.41,3547.93,350.45,322.25,15.70,0000 0000 0000 0000 000000
2013-08-28 01:58:12,-0.04,0.27,0.00,23.80,28.35,30.65,5.86,29.29,1011.55,2047.97,3394.08,3273.52,3547.96,348.54,320.40,15.71,0000 0000 0000 0000 000000
2013-08-28 01:59:12,-0.02,0.27,0.00,23.80,28.35,30.65,5.88,29.38,1011.49,2047.99,3394.10,3273.60,3547.98,350.14,321.88,15.71,0000 0000 0000 0000 000000
2013-08-28 02:00:12,0.00,0.27,0.00,23.81,28.35,30.67,6.04,29.38,1011.43,2047.99,3394.06,3273.42,3547.95,351.07,322.61,15.72,0000 0000 0000 0000 000000
2013-08-28 02:01:12,0.02,0.27,0.00,23.81,28.35,30.64,5.99,29.38,1011.35,2047.96,3394.04,3273.27,3547.91,350.03,321.43,15.72,0000 0000 0000 0000 000000
2013-08-28 02:02:13,0.02,0.27,0.00,23.82,28.35,30.65,5.96,29.54,1011.34,2047.96,3394.02,3273.22,3547.82,349.82,321.37,15.73,0000 0000 0000 0000 000000
2013-08-28 02:03:13,0.01,0.27,0.00,23.81,28.35,30.64,5.81,29.58,1011.34,2047.96,3394.00,3273.12,3547.77,349.40,320.86,15.74,0000 0000 0000 0000 000000
2013-08-28 02:04:13,0.02,0.27,0.00,23.80,28.36,30.61,5.97,29.54,1011.32,2047.95,3394.00,3273.06,3547.58,350.20,321.59,15.74,0000 0000 0000 0000 000000
2013-08-28 02:05:14,0.03,0.27,0.00,23.81,28.37,30.64,5.82,29.29,1011.30,2047.96,3394.00,3273.03,3547.48,350.04,321.41,15.75,0000 0000 0000 0000 000000
2013-08-28 02:06:14,0.01,0.27,0.00,23.82,28.37,30.67,6.15,29.67,1011.29,2047.96,3394.00,3273.01,3547.36,350.08,321.82,15.75,0000 0000 0000 0000 000000
2013-08-28 02:07:14,0.02,0.27,0.00,23.81,28.37,30.68,6.00,29.63,1011.28,2047.97,3394.00,3273.00,3547.28,350.51,321.85,15.76,0000 0000 0000 0000 000000
2013-08-28 02:08:15,0.01,0.27,0.00,23.82,28.37,30.68,5.91,29.33,1011.30,2047.95,3394.00,3273.00,3547.19,349.92,321.31,15.77,0000 0000 0000 0000 000000
2013-08-28 02:09:15,0.01,0.27,0.00,23.83,28.37,30.68,5.95,29.46,1011.31,2047.97,3393.97,3273.01,3547.11,350.04,321.42,15.77,0000 0000 0000 0000 000000
2013-08-28 02:10:15,0.01,0.27,0.00,23.83,28.37,30.70,5.85,29.58,1011.32,2047.96,3393.98,3273.00,3547.07,348.33,319.85,15.78,0000 0000 0000 0000 000000
2013-08-28 02:11:15,-0.00,0.27,0.00,23.83,28.37,30.69,5.97,29.58,1011.33,2047.94,3393.96,3273.00,3547.05,349.30,320.73,15.78,0000 0000 0000 0000 000000
2013-08-28 02:12:16,-0.01,0.27,0.00,23.83,28.37,30.69,6.03,29.54,1011.32,2047.91,3393.91,3273.00,3547.02,351.38,322.34,15.79,0000 0000 0000 0000 000000
2013-08-28 02:13:16,-0.02,0.27,0.00,23.83,28.37,30.68,6.02,29.42,1011.32,2047.85,3393.81,3273.00,3547.00,350.78,322.09,15.79,0000 0000 0000 0000 000000
2013-08-28 02:14:16,-0.02,0.27,0.00,23.84,28.38,30.68,6.03,29.88,1011.33,2047.88,3393.64,3273.00,3547.00,350.07,321.37,15.80,0000 0000 0000 0000 000000
2013-08-28 02:15:16,0.04,0.27,0.00,23.86,28.38,30.64,6.10,29.71,1011.38,2047.87,3393.42,3273.00,3547.00,351.01,322.39,15.81,0000 0000 0000 0000 000000
2013-08-28 02:16:17,0.00,0.27,0.00,23.85,28.39,30.64,5.88,29.38,1011.40,2047.83,3393.21,3272.97,3547.00,350.10,321.52,15.81,0000 0000 0000 0000 000000
2013-08-28 02:17:17,-0.03,0.27,0.00,23.87,28.39,30.65,5.95,29.38,1011.36,2047.71,3393.09,3272.95,3546.99,349.85,321.35,15.82,0000 0000 0000 0000 000000
2013-08-28 02:18:17,-0.02,0.27,0.00,23.86,28.40,30.66,5.98,29.58,1011.32,2047.77,3393.06,3272.97,3546.99,349.28,320.69,15.82,0000 0000 0000 0000 000000
2013-08-28 02:19:18,0.01,0.27,0.00,23.86,28.40,30.68,5.97,29.46,1011.30,2047.78,3393.03,3272.97,3546.98,350.36,321.67,15.83,0000 0000 0000 0000 000000
2013-08-28 02:20:18,0.03,0.27,0.00,23.85,28.40,30.68,5.98,29.58,1011.30,2047.83,3393.02,3272.97,3546.99,349.90,321.70,15.84,0000 0000 0000 0000 000000
2013-08-28 02:21:18,0.02,0.27,0.00,23.87,28.40,30.67,6.07,29.50,1011.27,2047.78,3393.03,3272.98,3546.99,350.46,321.75,15.84,0000 0000 0000 0000 000000
2013-08-28 02:22:19,-0.03,0.27,0.00,23.87,28.40,30.68,6.02,29.50,1011.29,2047.76,3393.02,3272.98,3546.99,351.10,322.39,15.85,0000 0000 0000 0000 000000
2013-08-28 02:23:19,-0.01,0.27,0.00,23.88,28.40,30.65,5.83,29.67,1011.27,2047.78,3393.03,3272.98,3546.99,348.75,320.18,15.85,0000 0000 0000 0000 000000
2013-08-28 02:24:19,0.02,0.27,0.00,23.88,28.40,30.63,6.01,29.75,1011.25,2047.81,3393.03,3272.96,3546.98,348.76,320.35,15.86,0000 0000 0000 0000 000000
2013-08-28 02:25:20,0.02,0.27,0.00,23.88,28.40,30.62,5.88,29.46,1011.26,2047.78,3393.03,3272.96,3546.99,350.13,321.42,15.86,0000 0000 0000 0000 000000
2013-08-28 02:26:20,0.00,0.27,0.00,23.89,28.40,30.61,5.88,29.58,1011.28,2047.80,3393.02,3272.97,3546.98,348.05,319.51,15.87,0000 0000 0000 0000 000000
2013-08-28 02:27:20,0.02,0.27,0.00,23.88,28.41,30.60,5.89,29.29,1011.26,2047.83,3393.00,3272.98,3546.98,349.49,320.84,15.88,0000 0000 0000 0000 000000
2013-08-28 02:28:20,-0.01,0.27,0.00,23.89,28.42,30.61,5.95,29.50,1011.27,2047.84,3393.00,3272.99,3546.95,350.97,321.91,15.88,0000 0000 0000 0000 000000
2013-08-28 02:29:21,-0.02,0.27,0.00,23.89,28.42,30.62,5.97,29.38,1011.29,2047.76,3393.00,3272.93,3546.94,350.07,321.59,15.89,0000 0000 0000 0000 000000
2013-08-28 02:30:21,-0.01,0.27,0.00,23.89,28.42,30.69,6.08,29.67,1011.26,2047.78,3393.00,3272.86,3546.93,350.84,322.06,15.89,0000 0000 0000 0000 000000
2013-08-28 02:31:21,-0.01,0.27,0.00,23.89,28.42,30.72,6.05,29.58,1011.28,2047.65,3393.00,3272.79,3546.80,351.13,322.12,15.90,0000 0000 0000 0000 000000
2013-08-28 02:32:21,-0.05,0.27,0.00,23.89,28.42,30.73,6.06,29.42,1011.26,2047.47,3392.99,3272.62,3546.51,351.38,322.95,15.91,0000 0000 0000 0000 000000
2013-08-28 02:33:22,-0.06,0.27,0.00,23.89,28.42,30.70,5.88,29.67,1011.26,2047.28,3392.97,3272.33,3546.25,350.41,321.27,15.91,0000 0000 0000 0000 000000
2013-08-28 02:34:22,-0.02,0.27,0.00,23.89,28.42,30.65,5.93,29.63,1011.25,2047.24,3392.96,3272.26,3546.18,349.98,321.39,15.92,0000 0000 0000 0000 000000
2013-08-28 02:35:22,0.00,0.27,0.00,23.88,28.42,30.66,5.83,29.46,1011.26,2047.22,3392.91,3272.18,3546.09,349.69,321.02,15.92,0000 0000 0000 0000 000000
2013-08-28 02:36:23,0.01,0.27,0.00,23.89,28.42,30.70,6.02,29.38,1011.27,2047.22,3392.92,3272.11,3546.05,349.65,320.97,15.93,0000 0000 0000 0000 000000